QPF
0.01 0.01 0.01 0.03 0.04 0.06 0.06 0.06 0.04 0.03 0.02 0.02 0.01 0.01 0.01 0.01 0.01 0.01 0.02 0.03 0.05 0.03 0.02 0.02 0.02 0.02 0.03 0.03 0.03 0.03 0.04 0.03 0.04 0.03 0.02 0.02 0.02 0.02 0.01 0.01 0.01 0.02 0.01
0.01 0.01 0.01 0.02 0.02 0.03 0.05 0.06 0.05 0.04 0.03 0.02 0.01 0.01 0.01 0.01 0.01 0.01 0.01 0.02 0.04 0.04 0.03 0.02 0.02 0.02 0.03 0.04 0.04 0.03 0.04 0.03 0.03 0.03 0.03 0.02 0.01 0.02 0.02 0.01 0.01 0.01 0.01
0.01 0.01 0.01 0.02 0.01 0.01 0.03 0.05 0.06 0.06 0.04 0.03 0.02 0.02 0.01 0.02 0.01 0.01 0.01 0.02 0.02 0.03 0.04 0.03 0.02 0.02 0.02 0.03 0.04 0.04 0.03 0.03 0.03 0.03 0.03 0.02 0.01 0.01 0.02 0.02 0.02 0.01 0.01
0.01 0.01 0.01 0.02 0.01 0.01 0.02 0.03 0.05 0.05 0.05 0.04 0.03 0.03 0.02 0.02 0.02 0.02 0.02 0.02 0.02 0.03 0.03 0.04 0.04 0.03 0.02 0.02 0.02 0.03 0.04 0.04 0.04 0.04 0.03 0.02 0.02 0.01 0.02 0.02 0.02 0.02 0.01
0.01 0.01 0.02 0.03 0.03 0.02 0.02 0.02 0.03 0.04 0.04 0.04 0.03 0.02 0.02 0.03 0.03 0.03 0.03 0.03 0.03 0.03 0.05 0.06 0.06 0.05 0.04 0.04 0.03 0.03 0.03 0.05 0.06 0.06 0.04 0.03 0.02 0.02 0.02 0.02 0.02 0.02 0.01
0.01 0.01 0.02 0.02 0.03 0.03 0.03 0.03 0.03 0.03 0.03 0.03 0.03 0.02 0.02 0.02 0.03 0.03 0.03 0.03 0.03 0.03 0.04 0.05 0.06 0.08 0.07 0.06 0.06 0.05 0.04 0.05 0.06 0.06 0.04 0.03 0.03 0.03 0.02 0.02 0.02 0.01 0.01
0.01 0.01 0.01 0.01 0.02 0.02 0.02 0.02 0.03 0.04 0.04 0.03 0.03 0.03 0.03 0.03 0.04 0.03 0.03 0.03 0.03 0.03 0.03 0.04 0.05 0.06 0.07 0.07 0.06 0.05 0.05 0.05 0.06 0.06 0.04 0.02 0.02 0.02 0.02 0.01 0.01 0.01 0.01
0.02 0.01 0.01 0.01 0.01 0.02 0.02 0.02 0.02 0.02 0.03 0.03 0.04 0.04 0.04 0.05 0.05 0.03 0.02 0.02 0.03 0.03 0.03 0.02 0.03 0.04 0.05 0.05 0.05 0.05 0.05 0.05 0.05 0.04 0.04 0.02 0.01 0.01 0.02 0.02 0.01 0.01 0.01
0.03 0.03 0.02 0.02 0.01 0.01 0.02 0.02 0.02 0.02 0.02 0.03 0.04 0.04 0.05 0.05 0.04 0.03 0.02 0.02 0.03 0.02 0.03 0.03 0.03 0.03 0.05 0.07 0.05 0.03 0.04 0.05 0.05 0.04 0.04 0.03 0.02 0.01 0.01 0.01 0.02 0.02 0.02
0.02 0.02 0.03 0.03 0.03 0.02 0.02 0.02 0.03 0.03 0.03 0.02 0.02 0.02 0.02 0.03 0.04 0.03 0.02 0.02 0.03 0.03 0.04 0.04 0.05 0.04 0.03 0.05 0.06 0.06 0.05 0.07 0.06 0.05 0.03 0.02 0.02 0.01 0.01 0.01 0.02 0.02 0.02
0.01 0.01 0.02 0.02 0.02 0.02 0.02 0.01 0.02 0.03 0.04 0.03 0.03 0.02 0.02 0.03 0.03 0.03 0.03 0.02 0.03 0.03 0.05 0.07 0.08 0.08 0.05 0.04 0.05 0.06 0.07 0.08 0.07 0.06 0.04 0.02 0.02 0.02 0.01 0.01 0.02 0.02 0.02
0.01 0.02 0.02 0.02 0.02 0.02 0.02 0.01 0.02 0.02 0.03 0.04 0.04 0.03 0.03 0.03 0.03 0.04 0.03 0.03 0.03 0.03 0.04 0.06 0.06 0.06 0.05 0.04 0.04 0.05 0.06 0.07 0.08 0.07 0.04 0.03 0.02 0.01 0.01 0.01 0.02 0.02 0.02
0.02 0.03 0.03 0.03 0.02 0.02 0.02 0.02 0.02 0.02 0.02 0.03 0.03 0.04 0.03 0.02 0.02 0.02 0.02 0.02 0.02 0.03 0.04 0.04 0.05 0.04 0.05 0.05 0.05 0.06 0.06 0.07 0.08 0.09 0.05 0.03 0.02 0.01 0.01 0.01 0.01 0.02 0.02
0.03 0.04 0.05 0.04 0.03 0.03 0.02 0.02 0.02 0.02 0.02 0.02 0.02 0.03 0.03 0.03 0.03 0.03 0.02 0.03 0.04 0.04 0.05 0.05 0.05 0.04 0.05 0.06 0.08 0.08 0.08 0.07 0.07 0.07 0.07 0.04 0.03 0.02 0.02 0.02 0.02 0.02 0.02
0.04 0.04 0.04 0.04 0.03 0.02 0.02 0.03 0.02 0.02 0.01 0.01 0.01 0.01 0.02 0.03 0.04 0.03 0.03 0.02 0.03 0.03 0.05 0.06 0.06 0.05 0.04 0.05 0.06 0.08 0.11 0.09 0.07 0.07 0.07 0.06 0.04 0.03 0.03 0.02 0.02 0.02 0.02
0.04 0.04 0.04 0.04 0.03 0.03 0.03 0.03 0.03 0.03 0.03 0.02 0.02 0.02 0.02 0.03 0.05 0.04 0.04 0.03 0.02 0.03 0.03 0.05 0.07 0.06 0.06 0.06 0.07 0.08 0.09 0.11 0.08 0.08 0.07 0.06 0.05 0.04 0.04 0.04 0.03 0.02 0.02
0.04 0.04 0.04 0.03 0.03 0.03 0.04 0.03 0.03 0.03 0.02 0.03 0.03 0.02 0.02 0.02 0.03 0.03 0.03 0.03 0.02 0.02 0.02 0.03 0.05 0.06 0.05 0.06 0.07 0.08 0.09 0.10 0.10 0.09 0.09 0.06 0.05 0.04 0.04 0.04 0.03 0.03 0.03
0.03 0.03 0.03 0.02 0.02 0.02 0.03 0.03 0.03 0.03 0.03 0.03 0.03 0.02 0.02 0.02 0.02 0.03 0.03 0.03 0.03 0.03 0.03 0.04 0.05 0.06 0.07 0.08 0.08 0.06 0.06 0.08 0.09 0.10 0.07 0.06 0.05 0.05 0.05 0.04 0.04 0.03 0.03
0.03 0.03 0.02 0.02 0.01 0.01 0.01 0.01 0.01 0.01 0.02 0.02 0.02 0.02 0.02 0.02 0.03 0.03 0.04 0.04 0.04 0.04 0.04 0.04 0.04 0.05 0.07 0.08 0.07 0.05 0.04 0.05 0.06 0.07 0.07 0.06 0.05 0.05 0.04 0.04 0.04 0.03 0.03
0.02 0.02 0.02 0.02 0.02 0.01 0.01 0.01 0.01 0.01 0.01 0.01 0.01 0.01 0.02 0.02 0.03 0.04 0.04 0.05 0.06 0.05 0.04 0.05 0.05 0.06 0.06 0.06 0.06 0.07 0.06 0.05 0.04 0.04 0.05 0.04 0.04 0.05 0.05 0.05 0.04 0.04 0.03
0.01 0.01 0.01 0.01 0.01 0.01 0.01 0.01 0.01 0.01 0.01 0.01 0.01 0.01 0.01 0.02 0.03 0.04 0.05 0.06 0.07 0.07 0.06 0.05 0.05 0.05 0.04 0.04 0.05 0.06 0.07 0.06 0.04 0.03 0.03 0.03 0.03 0.03 0.05 0.05 0.05 0.04 0.03
0.01 0.01 0.01 0.01 0.01 0.01 0.01 0.01 0.01 0.01 0.01 0.01 0.01 0.01 0.02 0.02 0.03 0.04 0.05 0.06 0.07 0.06 0.05 0.05 0.04 0.04 0.05 0.05 0.05 0.06 0.07 0.08 0.07 0.06 0.05 0.04 0.03 0.03 0.03 0.03 0.04 0.04 0.03
0.01 0.01 0.01 0.00 0.00 0.01 0.01 0.01 0.01 0.01 0.01 0.01 0.02 0.02 0.03 0.03 0.04 0.04 0.04 0.04 0.04 0.04 0.04 0.04 0.03 0.04 0.05 0.05 0.05 0.05 0.06 0.07 0.09 0.09 0.09 0.08 0.07 0.06 0.05 0.05 0.05 0.05 0.05
0.01 0.01 0.01 0.01 0.01 0.01 0.01 0.01 0.01 0.01 0.01 0.01 0.02 0.02 0.03 0.03 0.02 0.02 0.02 0.03 0.03 0.03 0.03 0.03 0.03 0.02 0.03 0.03 0.04 0.04 0.05 0.05 0.07 0.08 0.08 0.09 0.08 0.07 0.06 0.06 0.06 0.05 0.05
0.01 0.01 0.01 0.01 0.01 0.01 0.01 0.00 0.01 0.01 0.01 0.01 0.02 0.02 0.02 0.02 0.02 0.02 0.01 0.01 0.02 0.02 0.02 0.03 0.03 0.03 0.02 0.02 0.03 0.03 0.04 0.04 0.04 0.05 0.06 0.07 0.07 0.07 0.06 0.05 0.05 0.06 0.05
0.00 0.01 0.01 0.01 0.01 0.01 0.01 0.01 0.01 0.01 0.01 0.01 0.01 0.01 0.02 0.02 0.02 0.02 0.01 0.01 0.01 0.01 0.02 0.02 0.03 0.03 0.03 0.03 0.02 0.02 0.03 0.02 0.03 0.04 0.05 0.05 0.05 0.05 0.04 0.04 0.03 0.04 0.04
MSLP
1024.75 1024.73 1024.66 1024.55 1024.36 1024.10 1023.79 1023.43 1023.05 1022.68 1022.31 1021.96 1021.62 1021.26 1020.87 1020.43 1019.92 1019.37 1018.77 1018.15 1017.55 1017.01 1016.54 1016.15 1015.84 1015.60 1015.39 1015.17 1014.91 1014.58 1014.17 1013.67 1013.12 1012.54 1011.97 1011.47 1011.08 1010.82 1010.72 1010.80 1011.03 1011.40 1011.89
1025.07 1025.04 1024.95 1024.81 1024.60 1024.32 1023.99 1023.64 1023.27 1022.92 1022.58 1022.27 1021.96 1021.64 1021.30 1020.90 1020.45 1019.93 1019.36 1018.77 1018.18 1017.63 1017.14 1016.72 1016.38 1016.11 1015.88 1015.65 1015.40 1015.10 1014.72 1014.26 1013.72 1013.14 1012.55 1011.98 1011.48 1011.08 1010.82 1010.73 1010.79 1011.01 1011.37
1025.38 1025.35 1025.26 1025.10 1024.86 1024.57 1024.23 1023.87 1023.51 1023.17 1022.86 1022.57 1022.30 1022.03 1021.74 1021.40 1021.00 1020.54 1020.02 1019.47 1018.91 1018.37 1017.87 1017.44 1017.07 1016.76 1016.50 1016.26 1016.01 1015.72 1015.38 1014.96 1014.46 1013.91 1013.31 1012.71 1012.14 1011.63 1011.24 1010.97 1010.85 1010.89 1011.08
1025.65 1025.63 1025.55 1025.38 1025.14 1024.84 1024.50 1024.15 1023.80 1023.47 1023.18 1022.92 1022.69 1022.46 1022.21 1021.93 1021.60 1021.21 1020.75 1020.25 1019.73 1019.21 1018.70 1018.24 1017.84 1017.49 1017.18 1016.91 1016.64 1016.36 1016.03 1015.65 1015.20 1014.69 1014.12 1013.51 1012.91 1012.34 1011.83 1011.42 1011.14 1010.99 1010.98
1025.85 1025.86 1025.79 1025.64 1025.41 1025.12 1024.79 1024.45 1024.12 1023.82 1023.55 1023.32 1023.13 1022.94 1022.75 1022.53 1022.25 1021.92 1021.53 1021.08 1020.59 1020.08 1019.57 1019.08 1018.62 1018.22 1017.85 1017.51 1017.21 1016.90 1016.57 1016.21 1015.80 1015.33 1014.80 1014.23 1013.63 1013.03 1012.46 1011.95 1011.52 1011.20 1011.00
1025.97 1026.02 1025.98 1025.86 1025.65 1025.38 1025.08 1024.77 1024.47 1024.21 1023.98 1023.79 1023.63 1023.49 1023.34 1023.17 1022.94 1022.67 1022.32 1021.91 1021.45 1020.94 1020.41 1019.88 1019.37 1018.88 1018.43 1018.02 1017.64 1017.28 1016.92 1016.56 1016.17 1015.74 1015.26 1014.74 1014.17 1013.58 1012.99 1012.42 1011.89 1011.43 1011.06
1026.05 1026.13 1026.12 1026.03 1025.86 1025.63 1025.37 1025.11 1024.86 1024.64 1024.46 1024.31 1024.19 1024.09 1023.98 1023.84 1023.65 1023.41 1023.09 1022.71 1022.25 1021.74 1021.19 1020.61 1020.03 1019.46 1018.92 1018.41 1017.94 1017.50 1017.09 1016.70 1016.31 1015.90 1015.46 1014.99 1014.48 1013.92 1013.34 1012.75 1012.17 1011.61 1011.10
1026.11 1026.22 1026.24 1026.18 1026.04 1025.86 1025.66 1025.45 1025.26 1025.10 1024.97 1024.87 1024.80 1024.73 1024.64 1024.52 1024.35 1024.12 1023.82 1023.43 1022.98 1022.45 1021.87 1021.25 1020.61 1019.96 1019.32 1018.72 1018.15 1017.63 1017.15 1016.71 1016.30 1015.89 1015.48 1015.05 1014.58 1014.08 1013.53 1012.95 1012.34 1011.73 1011.13
1026.20 1026.33 1026.37 1026.33 1026.23 1026.09 1025.94 1025.80 1025.67 1025.58 1025.51 1025.46 1025.42 1025.38 1025.31 1025.20 1025.03 1024.79 1024.48 1024.09 1023.62 1023.07 1022.47 1021.82 1021.13 1020.43 1019.73 1019.05 1018.40 1017.80 1017.25 1016.75 1016.29 1015.86 1015.45 1015.04 1014.61 1014.14 1013.63 1013.07 1012.47 1011.83 1011.17
1026.35 1026.48 1026.53 1026.50 1026.43 1026.34 1026.24 1026.15 1026.09 1026.06 1026.05 1026.05 1026.05 1026.03 1025.96 1025.85 1025.66 1025.41 1025.08 1024.67 1024.19 1023.64 1023.03 1022.37 1021.67 1020.94 1020.21 1019.49 1018.79 1018.12 1017.51 1016.95 1016.44 1015.97 1015.54 1015.12 1014.69 1014.24 1013.75 1013.21 1012.62 1011.97 1011.29
1026.56 1026.69 1026.73 1026.71 1026.66 1026.59 1026.53 1026.50 1026.50 1026.52 1026.57 1026.61 1026.64 1026.63 1026.58 1026.45 1026.25 1025.97 1025.62 1025.20 1024.71 1024.16 1023.57 1022.92 1022.25 1021.54 1020.82 1020.09 1019.38 1018.68 1018.03 1017.42 1016.85 1016.33 1015.85 1015.39 1014.94 1014.48 1013.99 1013.45 1012.86 1012.22 1011.52
1026.81 1026.92 1026.95 1026.94 1026.89 1026.84 1026.81 1026.82 1026.86 1026.94 1027.02 1027.11 1027.17 1027.17 1027.11 1026.98 1026.76 1026.47 1026.10 1025.67 1025.19 1024.67 1024.10 1023.51 1022.89 1022.24 1021.56 1020.88 1020.18 1019.50 1018.82 1018.17 1017.56 1016.98 1016.43 1015.92 1015.42 1014.91 1014.39 1013.84 1013.24 1012.59 1011.89
1027.04 1027.15 1027.17 1027.15 1027.10 1027.06 1027.06 1027.09 1027.17 1027.27 1027.40 1027.51 1027.59 1027.61 1027.55 1027.41 1027.19 1026.88 1026.51 1026.09 1025.63 1025.14 1024.63 1024.11 1023.56 1023.00 1022.41 1021.79 1021.15 1020.49 1019.83 1019.16 1018.51 1017.87 1017.26 1016.67 1016.10 1015.53 1014.96 1014.37 1013.74 1013.08 1012.36
1027.23 1027.33 1027.35 1027.32 1027.28 1027.24 1027.24 1027.29 1027.38 1027.51 1027.65 1027.79 1027.88 1027.91 1027.86 1027.72 1027.50 1027.20 1026.84 1026.44 1026.01 1025.57 1025.13 1024.68 1024.23 1023.76 1023.26 1022.74 1022.17 1021.56 1020.92 1020.26 1019.58 1018.89 1018.22 1017.55 1016.91 1016.27 1015.63 1014.98 1014.32 1013.62 1012.89
1027.33 1027.44 1027.46 1027.44 1027.39 1027.35 1027.35 1027.40 1027.50 1027.63 1027.78 1027.92 1028.02 1028.06 1028.02 1027.90 1027.68 1027.40 1027.06 1026.69 1026.31 1025.93 1025.55 1025.18 1024.82 1024.44 1024.04 1023.60 1023.11 1022.56 1021.96 1021.31 1020.62 1019.90 1019.18 1018.46 1017.74 1017.03 1016.32 1015.62 1014.90 1014.17 1013.41
1027.33 1027.46 1027.50 1027.49 1027.44 1027.41 1027.40 1027.44 1027.53 1027.65 1027.79 1027.93 1028.03 1028.08 1028.05 1027.94 1027.75 1027.49 1027.19 1026.86 1026.52 1026.19 1025.88 1025.58 1025.29 1024.99 1024.67 1024.30 1023.87 1023.38 1022.81 1022.18 1021.50 1020.77 1020.02 1019.26 1018.49 1017.72 1016.96 1016.20 1015.44 1014.66 1013.86
1027.25 1027.41 1027.48 1027.48 1027.45 1027.42 1027.41 1027.43 1027.50 1027.61 1027.73 1027.85 1027.94 1027.99 1027.97 1027.88 1027.72 1027.50 1027.24 1026.95 1026.66 1026.38 1026.12 1025.87 1025.63 1025.38 1025.10 1024.78 1024.40 1023.94 1023.41 1022.81 1022.14 1021.42 1020.67 1019.89 1019.09 1018.30 1017.50 1016.70 1015.89 1015.08 1014.24
1027.11 1027.31 1027.42 1027.45 1027.44 1027.42 1027.40 1027.42 1027.46 1027.53 1027.63 1027.72 1027.80 1027.84 1027.83 1027.76 1027.64 1027.46 1027.24 1027.00 1026.76 1026.51 1026.28 1026.06 1025.84 1025.61 1025.35 1025.05 1024.69 1024.26 1023.75 1023.18 1022.54 1021.84 1021.10 1020.33 1019.54 1018.74 1017.93 1017.11 1016.27 1015.41 1014.53
1026.94 1027.18 1027.34 1027.41 1027.43 1027.43 1027.42 1027.41 1027.43 1027.48 1027.54 1027.60 1027.66 1027.69 1027.69 1027.64 1027.54 1027.41 1027.23 1027.04 1026.83 1026.62 1026.40 1026.19 1025.97 1025.73 1025.46 1025.15 1024.78 1024.36 1023.87 1023.31 1022.70 1022.04 1021.34 1020.61 1019.85 1019.06 1018.26 1017.43 1016.57 1015.68 1014.76
1026.76 1027.05 1027.25 1027.38 1027.44 1027.46 1027.45 1027.44 1027.44 1027.45 1027.48 1027.51 1027.54 1027.56 1027.56 1027.53 1027.46 1027.37 1027.24 1027.08 1026.90 1026.70 1026.50 1026.27 1026.03 1025.76 1025.46 1025.12 1024.74 1024.30 1023.82 1023.28 1022.70 1022.09 1021.43 1020.75 1020.03 1019.28 1018.50 1017.67 1016.81 1015.90 1014.94
1026.57 1026.91 1027.16 1027.34 1027.44 1027.49 1027.50 1027.49 1027.47 1027.46 1027.45 1027.45 1027.46 1027.47 1027.47 1027.45 1027.41 1027.34 1027.25 1027.12 1026.96 1026.78 1026.56 1026.32 1026.04 1025.73 1025.39 1025.01 1024.59 1024.13 1023.64 1023.13 1022.58 1022.00 1021.40 1020.77 1020.10 1019.39 1018.64 1017.83 1016.97 1016.04 1015.05
1026.36 1026.75 1027.06 1027.28 1027.43 1027.51 1027.54 1027.54 1027.51 1027.47 1027.44 1027.41 1027.40 1027.39 1027.38 1027.37 1027.35 1027.31 1027.24 1027.13 1026.99 1026.80 1026.58 1026.30 1025.98 1025.63 1025.23 1024.81 1024.35 1023.87 1023.38 1022.87 1022.35 1021.81 1021.26 1020.68 1020.06 1019.40 1018.67 1017.88 1017.02 1016.08 1015.07
1026.14 1026.56 1026.91 1027.18 1027.37 1027.48 1027.53 1027.53 1027.50 1027.45 1027.39 1027.34 1027.31 1027.29 1027.28 1027.27 1027.26 1027.23 1027.17 1027.07 1026.93 1026.74 1026.48 1026.18 1025.82 1025.42 1024.97 1024.50 1024.01 1023.51 1023.01 1022.51 1022.01 1021.51 1020.99 1020.46 1019.88 1019.25 1018.56 1017.79 1016.94 1016.00 1014.98
1025.89 1026.34 1026.71 1027.01 1027.23 1027.37 1027.43 1027.44 1027.40 1027.34 1027.28 1027.21 1027.16 1027.12 1027.10 1027.09 1027.08 1027.05 1026.99 1026.89 1026.74 1026.52 1026.25 1025.90 1025.51 1025.06 1024.58 1024.07 1023.55 1023.04 1022.53 1022.04 1021.56 1021.08 1020.60 1020.10 1019.55 1018.96 1018.29 1017.54 1016.70 1015.77 1014.76
1025.62 1026.08 1026.46 1026.78 1027.01 1027.16 1027.23 1027.25 1027.21 1027.14 1027.07 1026.99 1026.92 1026.87 1026.84 1026.82 1026.79 1026.75 1026.68 1026.56 1026.38 1026.14 1025.83 1025.46 1025.02 1024.54 1024.02 1023.49 1022.96 1022.43 1021.93 1021.45 1020.98 1020.53 1020.07 1019.60 1019.08 1018.51 1017.87 1017.14 1016.32 1015.42 1014.44
1025.35 1025.79 1026.18 1026.49 1026.72 1026.87 1026.95 1026.96 1026.92 1026.85 1026.76 1026.68 1026.60 1026.54 1026.48 1026.44 1026.39 1026.33 1026.23 1026.08 1025.87 1025.59 1025.24 1024.83 1024.36 1023.85 1023.32 1022.77 1022.23 1021.71 1021.22 1020.75 1020.31 1019.88 1019.44 1018.99 1018.50 1017.95 1017.33 1016.63 1015.85 1014.98 1014.04
Thickness
5673 5672 5671 5671 5671 5670 5669 5669 5669 5670 5670 5670 5669 5668 5667 5667 5667 5666 5666 5666 5665 5664 5664 5664 5663 5663 5662 5661 5660 5659 5657 5654 5648 5649 5650 5650 5649 5648 5646 5644 5642 5640 5637
5665 5665 5664 5663 5663 5663 5662 5663 5663 5663 5663 5663 5662 5661 5661 5660 5659 5659 5658 5658 5658 5657 5657 5657 5656 5657 5656 5655 5653 5652 5650 5649 5645 5642 5642 5642 5642 5642 5640 5639 5637 5635 5633
5658 5657 5656 5655 5655 5655 5655 5655 5655 5655 5655 5655 5655 5654 5654 5653 5652 5652 5651 5651 5651 5651 5651 5650 5650 5649 5649 5648 5646 5645 5644 5644 5642 5638 5636 5637 5636 5636 5634 5632 5631 5629 5627
5649 5648 5647 5647 5647 5647 5647 5648 5647 5646 5646 5647 5647 5648 5647 5646 5646 5644 5644 5643 5643 5643 5643 5643 5643 5642 5641 5641 5640 5638 5637 5635 5634 5631 5630 5629 5628 5628 5626 5624 5621 5621 5620
5641 5639 5638 5639 5639 5638 5639 5639 5638 5638 5638 5638 5638 5639 5639 5638 5637 5636 5636 5635 5635 5635 5635 5636 5636 5636 5635 5634 5633 5631 5630 5628 5626 5624 5622 5621 5619 5618 5617 5617 5614 5613 5613
5632 5631 5630 5630 5629 5629 5629 5629 5628 5628 5628 5628 5628 5629 5629 5629 5629 5628 5627 5627 5627 5627 5626 5627 5628 5628 5628 5628 5626 5625 5624 5622 5620 5618 5616 5614 5614 5613 5611 5610 5607 5605 5603
5622 5622 5621 5620 5619 5619 5618 5618 5617 5617 5617 5617 5617 5618 5618 5619 5620 5620 5619 5618 5618 5618 5618 5619 5620 5621 5620 5618 5618 5618 5618 5617 5617 5614 5611 5610 5610 5608 5606 5603 5601 5599 5597
5612 5611 5610 5610 5608 5608 5608 5607 5607 5607 5607 5607 5607 5607 5608 5609 5610 5610 5610 5610 5609 5610 5610 5611 5611 5610 5611 5609 5609 5609 5609 5610 5611 5610 5608 5607 5606 5604 5602 5599 5596 5594 5592
5601 5600 5599 5598 5597 5597 5597 5597 5597 5597 5597 5597 5598 5598 5598 5599 5600 5600 5600 5600 5600 5600 5601 5602 5602 5601 5602 5602 5601 5600 5600 5601 5603 5603 5603 5602 5600 5598 5596 5592 5589 5585 5583
5590 5589 5588 5588 5587 5586 5586 5586 5587 5587 5587 5588 5588 5589 5589 5589 5590 5590 5590 5590 5590 5590 5591 5592 5593 5593 5593 5592 5591 5591 5590 5591 5593 5593 5593 5593 5592 5590 5589 5587 5584 5579 5577
5580 5579 5578 5577 5577 5576 5576 5576 5576 5576 5576 5577 5578 5579 5580 5580 5580 5581 5581 5580 5580 5581 5581 5581 5582 5583 5582 5582 5582 5582 5583 5584 5584 5583 5583 5582 5581 5580 5579 5579 5578 5576 5572
5569 5568 5567 5566 5566 5566 5565 5565 5565 5565 5564 5565 5566 5567 5568 5569 5570 5570 5571 5571 5572 5570 5570 5571 5572 5573 5573 5573 5573 5574 5575 5575 5575 5574 5573 5571 5571 5570 5570 5570 5569 5569 5568
5558 5556 5556 5556 5555 5554 5554 5554 5554 5553 5553 5553 5554 5555 5556 5557 5558 5559 5559 5560 5561 5560 5560 5561 5562 5563 5563 5563 5563 5564 5564 5564 5564 5564 5563 5563 5563 5562 5561 5560 5560 5559 5559
5546 5545 5544 5544 5543 5543 5542 5543 5542 5541 5541 5541 5541 5542 5542 5544 5545 5546 5547 5548 5549 5549 5549 5550 5551 5552 5552 5552 5552 5553 5554 5555 5555 5555 5555 5554 5553 5553 5552 5551 5549 5548 5547
5535 5534 5533 5532 5532 5531 5530 5530 5530 5530 5529 5529 5529 5529 5530 5531 5533 5534 5535 5537 5538 5538 5538 5538 5539 5540 5540 5541 5541 5542 5543 5544 5545 5546 5545 5544 5543 5542 5541 5541 5540 5539 5537
5524 5523 5521 5520 5519 5519 5518 5518 5518 5519 5519 5519 5519 5519 5519 5520 5522 5524 5525 5527 5528 5529 5528 5528 5528 5529 5530 5530 5530 5532 5533 5534 5536 5536 5536 5535 5534 5533 5532 5531 5530 5529 5528
5512 5511 5510 5508 5508 5507 5507 5506 5506 5507 5508 5508 5509 5509 5509 5510 5511 5513 5514 5516 5517 5518 5516 5517 5518 5519 5519 5520 5521 5521 5523 5524 5526 5526 5526 5526 5525 5524 5523 5521 5520 5520 5519
5502 5501 5498 5497 5496 5496 5495 5495 5495 5496 5496 5497 5498 5498 5499 5500 5501 5502 5503 5504 5505 5505 5505 5506 5507 5508 5509 5510 5511 5512 5513 5514 5514 5515 5515 5515 5515 5515 5514 5513 5512 5511 5510
5491 5489 5488 5487 5486 5486 5486 5486 5486 5486 5486 5486 5487 5488 5489 5489 5491 5491 5492 5492 5493 5494 5495 5496 5496 5497 5498 5499 5500 5501 5502 5503 5503 5504 5504 5504 5505 5504 5504 5504 5504 5504 5503
5482 5481 5480 5478 5477 5477 5477 5476 5476 5476 5476 5476 5476 5476 5477 5478 5479 5480 5481 5481 5483 5484 5484 5485 5487 5488 5488 5489 5490 5491 5491 5492 5493 5493 5493 5493 5494 5495 5495 5495 5495 5495 5495
5473 5472 5472 5469 5468 5468 5468 5467 5467 5467 5466 5466 5466 5467 5468 5468 5468 5469 5470 5471 5472 5473 5474 5475 5476 5477 5478 5479 5480 5480 5481 5482 5482 5482 5482 5483 5483 5484 5485 5485 5486 5486 5486
5465 5464 5463 5461 5460 5460 5459 5459 5458 5458 5457 5457 5457 5458 5458 5458 5458 5459 5459 5460 5462 5463 5464 5465 5466 5467 5468 5469 5469 5470 5471 5471 5472 5472 5473 5473 5474 5474 5475 5475 5475 5476 5476
5458 5456 5455 5454 5453 5453 5452 5451 5450 5450 5449 5449 5448 5448 5447 5447 5448 5448 5449 5450 5451 5452 5453 5455 5456 5457 5458 5459 5459 5460 5460 5461 5462 5463 5463 5464 5464 5464 5465 5465 5466 5466 5467
5452 5450 5448 5447 5446 5445 5444 5443 5442 5441 5441 5440 5439 5439 5438 5438 5438 5439 5440 5441 5441 5442 5443 5444 5445 5446 5447 5448 5449 5449 5450 5451 5452 5452 5453 5454 5454 5454 5455 5456 5456 5457 5457
5445 5443 5442 5440 5439 5437 5436 5435 5434 5433 5432 5431 5430 5430 5429 5429 5429 5430 5430 5431 5432 5433 5434 5434 5435 5435 5437 5438 5439 5440 5441 5442 5443 5443 5444 5444 5445 5445 5446 5447 5447 5448 5448
5438 5436 5434 5433 5431 5429 5428 5426 5425 5424 5423 5422 5421 5421 5421 5420 5420 5421 5421 5422 5423 5423 5424 5425 5426 5426 5428 5429 5430 5431 5432 5433 5434 5435 5435 5436 5436 5437 5437 5438 5438 5439 5439